This is the latest recevied weather packets stored in our database for station/object OK1VCF-8. If no packets are shown the sender has not sent any weather packets the latest 10 day(s).
| Time | Temp. | Humidity | Pressure | Rain* | Wind** | Luminosity | Snow |
|---|---|---|---|---|---|---|---|
| 1777794532 | 21.11° C | 40% | 1018.2 hPa | - | - | - | - |
| 1777794090 | 20° C | 40% | 1018.2 hPa | - | - | - | - |
| 1777793652 | 20° C | 40% | 1018.3 hPa | - | - | - | - |
| 1777793212 | 18.89° C | 42% | 1018.3 hPa | - | - | - | - |
| 1777792772 | 18.33° C | 44% | 1018.2 hPa | - | - | - | - |
| 1777792317 | 17.78° C | 45% | 1018.4 hPa | - | - | - | - |
| 1777791862 | 17.78° C | 46% | 1018.4 hPa | - | - | - | - |
| 1777791404 | 16.67° C | 46% | 1018.6 hPa | - | - | - | - |
| 1777790952 | 16.67° C | 48% | 1018.6 hPa | - | - | - | - |
| 1777790498 | 16.67° C | 48% | 1018.4 hPa | - | - | - | - |
| 1777790043 | 15.56° C | 50% | 1018.6 hPa | - | - | - | - |
| 1777789587 | 15.56° C | 51% | 1018.6 hPa | - | - | - | - |
| 1777788964 | 15° C | 52% | 1018.5 hPa | - | - | - | - |
| 1777788508 | 15° C | 54% | 1018.5 hPa | - | - | - | - |
| 1777788054 | 14.44° C | 55% | 1018.4 hPa | - | - | - | - |
| 1777787601 | 14.44° C | 56% | 1018.4 hPa | - | - | - | - |
| 1777787160 | 13.33° C | 57% | 1018.4 hPa | - | - | - | - |
| 1777786720 | 13.33° C | 57% | 1018.5 hPa | - | - | - | - |
| 1777786283 | 12.78° C | 58% | 1018.5 hPa | - | - | - | - |
| 1777785843 | 12.22° C | 58% | 1018.6 hPa | - | - | - | - |
| 1777785406 | 12.22° C | 60% | 1018.6 hPa | - | - | - | - |
| 1777784967 | 12.22° C | 60% | 1018.6 hPa | - | - | - | - |
| 1777784530 | 11.11° C | 62% | 1018.8 hPa | - | - | - | - |
| 1777784091 | 11.11° C | 62% | 1018.7 hPa | - | - | - | - |
| 1777783653 | 11.67° C | 61% | 1018.6 hPa | - | - | - | - |
* Rain since midnight (hover to see other rain measurements)
** Current wind speed in m/s (hover to see current wind gust speed)